Regional Weather Roundup
Issued by NWS

Home | Current Version | Previous Version | Text Only | Print | Product List | Glossary Off
Versions: 1 2 3 4 5 6 7 8 9 10 11 12 13 14 15 16 17 18 19 20 21 22 23 24 25 26 27 28 29 30 31 32 33 34 35 36 37 38 39 40 41 42 43 44 45 46 47 48 49 50

000
ASUS45 KTFX 282010
RWRMT
MONTANA REGIONAL WEATHER ROUNDUP
NATIONAL WEATHER SERVICE GREAT FALLS MT
200 PM MDT THU MAY 28 2015

NOTE: "FAIR" INDICATES FEW OR NO CLOUDS BELOW 12000 FEET WITH NO
SIGNIFICANT WEATHER AND/OR OBSTRUCTIONS TO VISIBILITY.

MTZ001>007-043-282100-
WEST OF THE DIVIDE

CITY           SKY/WX    TMP DP  RH WIND       PRES   REMARKS
KALISPELL      PTCLDY    73  44  35 NE13G21   30.12R
MISSOULA       PTSUNNY   68  46  45 VRB6      30.12S
BUTTE          PTSUNNY   60  40  47 N12       30.16S
MULLAN PASS    MOSUNNY   55  49  80 N5        30.21S
DEER LODGE       N/A     54  46  76 N10       30.23R
EUREKA           N/A     70  46  43 CALM      30.11F
HAMILTON         N/A     66  45  45 N13       30.11F
LIBBY            N/A     63  55  77 N7        30.09F
PLAINS           N/A     68  52  56 CALM      30.11S
RONAN            N/A     60  55  83 W5        30.18R
$$

MTZ008-052>055-282100-
SOUTHWEST MONTANA

CITY           SKY/WX    TMP DP  RH WIND       PRES   REMARKS
BOZEMAN        CLOUDY    53  48  83 SW6       30.15R
DILLON         PTSUNNY   61  44  53 NE17      30.13S
W YELLOWSTONE  CLOUDY    46  41  81 SW6       30.18S
THREE FORKS      N/A     55  35  46 W5        30.13R
$$

MTZ009-010-012-014-046-048-049-054-282100-
EAST SLOPES AND CENTRAL MONTANA

CITY           SKY/WX    TMP DP  RH WIND       PRES   REMARKS
CUT BANK       CLOUDY    49  46  90 N24       30.22R
GREAT FALLS    CLOUDY    56  51  84 NW18G26   30.15R
MALMSTROM AFB  CLOUDY    57  51  80 NW17G24   30.15R
HELENA         CLOUDY    57  49  74 NW5       30.18R
CONRAD           N/A     55  55 100 NW13      30.19R
$$

MTZ011-013-016-021-045-047-050-051-282100-
NORTH CENTRAL MONTANA

CITY           SKY/WX    TMP DP  RH WIND       PRES   REMARKS
HAVRE          CLOUDY    64  52  64 N21G31    30.05R
LEWISTOWN      CLOUDY    62  49  62 NW8       30.07R
N BAR RANCH    CLOUDY    59  46  63 NE15G23   30.09R
CHINOOK          N/A     61  57  88 CALM      30.04R
FORT BENTON      N/A     61  52  72 W20G25    30.11R
$$

MTZ017>020-022>027-061-062-282100-
NORTHEAST MONTANA

CITY           SKY/WX    TMP DP  RH WIND       PRES   REMARKS
GLASGOW        TSTM      58  49  72 E6        29.96R
JORDAN           N/A     72  51  47 N10       29.96S
SIDNEY         PTSUNNY   73  54  49 NW8       29.89R
WOLF POINT     PTSUNNY   76  52  43 NE16      29.91F
MALTA            N/A     75  48  38 CALM      29.94F
PLENTYWOOD       N/A     70  48  46 N15       29.91F
POPLAR           N/A     72  52  49 N18       29.90F
SCOBEY           N/A     70  51  50 N10       29.93F
$$

MTZ028>42-056>058-282100-
SOUTHCENTRAL AND SOUTHEAST MONTANA

CITY           SKY/WX    TMP DP  RH WIND       PRES   REMARKS
BAKER          PTSUNNY   73  49  42 NW14G22   29.93F
BILLINGS       TSTM      54  50  86 N12       30.07R
LIVINGSTON     LGT RAIN  52  46  80 W6        30.14R
MILES CITY     CLOUDY    75  50  41 N14       29.93F
BIG TIMBER       N/A     50  46  87 SW10      30.12R
EKALAKA          N/A     69  47  45 W9        29.94S
LAUREL           N/A     54  48  80 SW8       30.03S
ROUNDUP          N/A     65  45  48 N8        29.94S
$$

REGIONAL REPORTS...DAKOTAS

CITY           SKY/WX    TMP DP  RH WIND       PRES   REMARKS
WILLISTON      PTSUNNY   72  54  53 N16       29.89S
MINOT          CLOUDY    70  57  63 N10       29.86S
DICKINSON      PTSUNNY   74  53  48 NW9G17    29.88F
BEACH          MOCLDY    72  54  53 NW14G20   29.91S
CROSBY         FAIR      70  54  56 NE10G28   29.90S
WATFORD CITY     N/A     68  55  64 N8        29.88
BISMARCK       PTSUNNY   77  56  48 NW8       29.85F
GRAND FORKS    CLOUDY    76  63  64 SW9G18    29.80F
FARGO          SUNNY     85  60  42 SW20G28   29.81F
BUFFALO SD       N/A     71  50  47 NW17      29.85F
RAPID CITY     PTSUNNY   72  54  53 N9        29.92F
$$

REGIONAL REPORTS...WYOMING/IDAHO/WASHINGTON

CITY           SKY/WX    TMP DP  RH WIND       PRES   REMARKS
GILLETTE       CLOUDY    61  49  64 NW14      30.02S
SHERIDAN       CLOUDY    62  44  51 W6        30.04R
BUFFALO WY     CLOUDY    58  42  55 CALM      30.07R
CODY           PTSUNNY   59  43  55 NW14G20   30.08F
YELLOWSTONE LA   N/A     39  37  92 VRB5      30.22S
IDAHO FALLS    PTSUNNY   61  43  51 CALM      30.14S
SALMON         MOSUNNY   64  45  48 SW9       30.11F
BOISE          SUNNY     74  43  32 W10       30.08F
SPOKANE        PTSUNNY   74  50  42 SW9       30.09S
$$

REGIONAL REPORTS...ALBERTA

CITY           SKY/WX    TMP DP  RH WIND       PRES   REMARKS
EDMONTON       SUNNY     52  27  37 N9        30.32R
CALGARY        CLOUDY    50  43  76 N14G20    30.30R
LETHBRIDGE     LGT RAIN  48  46  93 N10G18    30.27R SMOKE
MEDICINE HAT   LGT RAIN  50  46  87 N20       30.22R
$$

REGIONAL REPORTS...SASKATCHEWAN

CITY           SKY/WX    TMP DP  RH WIND       PRES   REMARKS
SWIFT CURRENT  LGT RAIN  48  46  93 N23G29    30.10R
REGINA         PTSUNNY   59  46  63 N31G39    29.98R
SASKATOON      MOSUNNY   55  32  41 N21G30    30.15S
$$


USA.gov is the U.S. government's official web portal to all federal, state and local government web resources and services.